Location: Ariel
(45.9570°N, 122.5700°W)
Time: 20:15:36
(UTC-07:00)

Transit 4A - Pass Details

Date: 26 July 2019
Orbit: 863 x 981 km, 66.8° (Epoch: 20 August)

Event Time Altitude Azimuth Distance (km) Brightness Sun altitude
Rises 08:58:56 0° 329° (NNW) 3,679 10.7 31.4°
Reaches altitude 10° 09:01:46 10° 338° (NNW) 2,718 10.2 31.9°
Maximum altitude 09:07:35 36° 44° (NE) 1,457 9.8 32.9°
Drops below altitude 10° 09:13:14 10° 110° (ESE) 2,639 11.6 33.9°
Sets 09:15:56 0° 119° (ESE) 3,560 11.8 34.4°
